Regional Weather Roundup
Issued by NWS

Home | Current Version | Previous Version | Text Only | Print | Product List | Glossary On
Versions: 1 2 3 4 5 6 7 8 9 10 11 12 13 14 15 16 17 18 19 20 21 22 23 24 25 26 27 28 29 30 31 32 33 34 35 36 37 38 39 40 41 42 43 44 45 46 47 48 49 50
000
ASUS45 KABQ 290510
RWRNM
WEATHER ROUNDUP FOR NEW MEXICO
NATIONAL WEATHER SERVICE ALBUQUERQUE NM
1100 PM MDT THU AUG 28 2014

NOTE: "FAIR" MEANS FEW OR NO CLOUDS BELOW 12,000 FEET AGL WITH NO
       SIGNIFICANT WEATHER OR OBSTRUCTIONS TO VISION.

      THIS PRODUCT IS RELEASED AS TWO VERSIONS.  ONE VERSION NEAR
      THE TOP OF THE HOUR CONTAINING PRELIMINARY DATA FROM ALBUQUERQUE
      AND OTHER STATIONS.  A FINAL VERSION WITH ADDITIONAL DATA IS
      ISSUED ABOUT 10 MINUTES AFTER THE HOUR.

NMZ501-503-504-510>518-290600-
NORTHWEST PLATEAU/NORTHCENTRAL MOUNTAINS

CITY           SKY/WX    TMP DP  RH WIND       PRES   REMARKS
FARMINGTON     CLEAR     66  42  41 W5        30.16S
LOS ALAMOS     PTCLDY    64  40  40 N14       30.27S
SANTA FE       PTCLDY    57  45  64 SW6       30.20R
ANGEL FIRE     MOCLDY    46  41  81 CALM      30.36S

$$
NMZ402-403-502-505>509-290600-
WESTCENTRAL MOUNTAINS/SOUTHWEST MOUNTAINS

CITY           SKY/WX    TMP DP  RH WIND       PRES   REMARKS
GALLUP         CLEAR     59  37  44 CALM      30.25S
SILVER CITY    CLEAR     72  45  37 NW12      30.15S

$$
NMZ407-409-411-412-290600-
SOUTHERN DESERTS

CITY           SKY/WX    TMP DP  RH WIND       PRES   REMARKS
LORDSBURG      FAIR      72  45  37 CALM      30.06R
DEMING         CLEAR     75  43  31 NW8       30.05R
LAS CRUCES     PTCLDY    72  44  36 W7        30.07R
HOLLOMAN AFB   CLEAR     71  47  41 SW2       30.02S
ALAMOGORDO     CLEAR     72  45  37 E6        30.04S
T OR C         CLEAR     74  45  35 NW9       30.08S

$$
NMZ519>523-290600-
CENTRAL VALLEYS/CENTRAL HIGHLANDS

CITY           SKY/WX    TMP DP  RH WIND       PRES   REMARKS
ALBUQUERQUE    CLEAR     74  41  30 N9        30.15R
DOUBLE EAGLE   CLEAR     65  44  46 NW8       30.18S
MORIARTY ARPT  FAIR      55  46  72 NE5       30.22R
CLINES CORNERS CLEAR     58  41  53 NW3       30.24S
BELEN          FAIR      68  42  39 NW8       30.13S
SOCORRO        FAIR      70  46  42 N8        30.12R

$$
NMZ524>526-539-540-290600-
SOUTHCENTRAL MOUNTAINS

CITY           SKY/WX    TMP DP  RH WIND       PRES   REMARKS
RUIDOSO        CLEAR     59  41  51 W7        30.26S

$$
NMZ527>531-290600-
NORTHEAST HIGHLANDS/NORTHEAST PLAINS

CITY           SKY/WX    TMP DP  RH WIND       PRES   REMARKS
LAS VEGAS      PTCLDY    55  41  59 N7        30.26R
RATON          MOCLDY    60  46  59 NE12      30.23R
CLAYTON        PTCLDY    62  51  67 NW16      30.13R

$$
NMZ532>537-290600-
EASTCENTRAL PLAINS

CITY           SKY/WX    TMP DP  RH WIND       PRES   REMARKS
TUCUMCARI      PTCLDY    71  46  40 NE9       30.05R
CANNON AFB     CLEAR     68  52  56 E14       30.03R
CLOVIS AIRPORT   N/A     66  57  72 E7        30.06R

$$
NMZ028-029-538-290600-
SOUTHEAST PLAINS

CITY           SKY/WX    TMP DP  RH WIND       PRES   REMARKS
ROSWELL        CLEAR     74  49  41 W9        29.99R
CARLSBAD       CLEAR     78  51  38 NW8       29.94S
HOBBS          CLEAR     75  55  50 N7        29.99S


$$


USA.gov is the U.S. government's official web portal to all federal, state and local government web resources and services.